User: anonymous   Login
Location: Newark
(44.6768°N, 22.5302°E)
Time: 03:50:40
(UTC+00:00)
Language:

XW-2C - Orbit

View from above orbital plane
View from above orbital plane
View from above satellite
View from above satellite

Ground track
Ground track

The orbit data is extracted from the following two-line orbital elements,

1 40906U 15049H   22178.74462407  .00004427  00000-0  21336-3 0  9997
2 40906  97.4918 182.0751 0012923 330.9031 139.6952 15.19181421374483
Epoch (UTC): 27 June 2022 17:52:15
Eccentricity: 0.0012923
inclination: 97.4918°
perigee height: 499 km
apogee height: 517 km
right ascension of ascending node: 182.0751°
argument of perigee: 330.9031°
revolutions per day: 15.19181421
mean anomaly at epoch: 139.6952°
orbit number at epoch: 37448

The dashed part of the orbit path shows where the satellite is in the earth's shadow,  

DLR